Regional Weather Roundup
Issued by NWS Lake Charles, LA

Home | Current Version | Previous Version | Text Only | Print | Product List | Glossary On
Versions: 1 2 3 4 5 6 7 8 9 10 11 12 13 14 15 16 17 18 19 20 21 22 23 24 25 26 27
000
ASUS44 KLCH 290410
RWRLCH
REGIONAL WEATHER ROUNDUP
NATIONAL WEATHER SERVICE LAKE CHARLES LA
1100 PM CDT SAT MAY 28 2016

Note: "fair" indicates few or no clouds below 12,000 feet with no
significant weather and/or obstructions to visibility.


ACROSS SOUTHEAST TEXAS

CITY           SKY/WX    TMP DP  RH WIND       PRES   REMARKS
BEAUMONT       CLOUDY    74  70  87 SE3       30.02R
BEAUMONT CITY  FAIR      75  71  88 SE3       30.04S
ORANGE         CLOUDY    76  72  87 CALM      30.05S
JASPER         CLEAR     72  69  90 CALM      30.06S
$$

ACROSS CENTRAL LOUISIANA

CITY           SKY/WX    TMP DP  RH WIND       PRES   REMARKS
LEESVILLE      NOT AVBL
FULLERTON      FAIR      73  69  87 CALM      30.03R
ALEXANDRIA INT CLEAR     74  71  91 CALM      30.03R
ESLER FIELD    CLEAR     72  69  90 CALM      30.05R
DERIDDER       FAIR      70  69  95 CALM      30.07R
OAKDALE        CLEAR     71  70  98 CALM      30.05R
OPELOUSAS      FAIR      74  71  89 SE5       30.05R
$$

ACROSS SOUTHWEST AND SOUTH CENTRAL LOUISIANA

CITY           SKY/WX    TMP DP  RH WIND       PRES   REMARKS
SULPHUR        CLOUDY    76  74  91 CALM      30.05R
LAKE CHARLES   FOG       75  72  90 SE3       30.05R VSB 1/2
CHENNAULT INT  NOT AVBL
CAMERON PHI    CLEAR     79  73  83 S6        30.07S
DEQUINCY       FAIR      72  72 100 CALM      30.05R
JENNINGS       FAIR      75  73  94 MISG      30.05R
LAFAYETTE      CLEAR     75  72  90 CALM      30.05R
NEW IBERIA     CLEAR     74  71  91 S3        30.06R
ABBEVILLE      FAIR      73  73  98 CALM      30.06R
PATTERSON      CLEAR     72  71  97 CALM      30.07
SALT POINT     NOT AVBL
$$

SELECTED SITES ACROSS THE REGION

CITY           SKY/WX    TMP DP  RH WIND       PRES   REMARKS
HOUSTON BUSH   MOCLDY    75  72  90 S5        30.03R
HOUSTON HOBBY  CLOUDY    78  73  84 SE3       30.02R
GALVESTON      CLOUDY    79  75  87 SE9       30.03R
COLLEGE STAT   CLOUDY    79  72  79 S9        30.02R
CONROE         CLOUDY    76  72  87 S5        30.04R
HUNTSVILLE     CLOUDY    79  72  79 S8        30.03R
LUFKIN         PTCLDY    74  70  87 SE3       30.03R
SHREVEPORT     CLEAR     75  70  84 SE6       30.03R
MONROE         CLEAR     73  71  93 CALM      30.05R
NATCHEZ MS     CLEAR     72  66  83 SE7       30.06S
BATON ROUGE    CLEAR     73  68  84 CALM      30.06S
N.O. INTL ARPT PTCLDY    73  69  87 CALM      30.06S
SLIDELL        CLEAR     70  69  97 CALM      30.06S
$$

MARINE REPORTS

STATION/POSITION TIME  SKY/WX   TEMP    WIND        PRES    VSBY
                                AIR SEA DIR/SP/G
                 (UTC)          (F)     (DEG/KT/KT) (MB)    (MI)
BUOY 30 S HIGH I 0350            80 83  140/ 12/ 14 1016.4R
WVE H/P(F/S)=  3/ 6

SEA RIM ST PARK  0400            79     150/  7/  9 1017.3R
PORT ARTHUR      0300               79              1016.9R
SABINE PASS N    0300            79 81              1018.1R
TEXAS POINT      NOT AVBL
CALCASIEU PASS   0300            80 81              1016.2R
LK CHARLES BEACH 0300            78 78              1017.4R
MARSH ISLAND     0300            80                   N/A
FRESH WATER LOCK 0300            77 81              1017.8R
AMERADA PASS     0300            74 78              1017.4R
$$




USA.gov is the U.S. government's official web portal to all federal, state and local government web resources and services.